Date,TemperatureHighF,TemperatureAvgF,TemperatureLowF,DewpointHighF,DewpointAvgF,DewpointLowF,HumidityHigh,HumidityAvg,HumidityLow,PressureMaxIn,PressureMinIn,WindSpeedMaxMPH,WindSpeedAvgMPH,GustSpeedMaxMPH,PrecipitationSumIn
2013-7-1,72,68,64,69,66,62,94,91,85,30.03,29.88,0,0,4,0.40
2013-7-2,83,68,60,73,65,58,96,90,67,30.08,30.00,0,0,3,0.23
2013-7-3,90,76,69,75,71,67,95,87,58,30.11,30.05,1,0,6,0.39
2013-7-4,92,77,71,76,72,69,95,86,57,30.13,30.02,1,0,6,0.40
2013-7-5,91,76,69,78,71,67,93,86,58,30.10,29.99,1,0,6,0.15
2013-7-6,88,77,69,73,69,64,93,79,50,30.03,29.94,0,0,3,0.00
2013-7-7,88,75,66,74,67,61,92,79,54,29.99,29.88,1,0,4,0.22
2013-7-8,81,73,69,72,69,66,95,88,66,30.00,29.88,0,0,4,0.11
2013-7-9,88,75,66,73,68,64,94,80,56,30.03,29.93,0,0,4,0.00
2013-7-10,81,75,72,73,70,66,91,84,70,29.92,29.68,1,0,7,0.16
2013-7-11,81,73,63,71,65,56,93,78,51,29.97,29.68,1,0,5,0.21
2013-7-12,81,69,59,64,59,55,89,72,49,30.15,29.97,1,0,6,0.00
2013-7-13,83,72,60,69,63,57,92,77,57,30.24,30.16,0,0,3,0.00
2013-7-14,90,78,69,74,69,65,92,76,54,30.27,30.17,0,0,2,0.00
2013-7-15,94,80,69,74,68,61,91,70,36,30.19,30.10,0,0,5,0.00
2013-7-16,91,79,68,72,66,63,86,67,42,30.18,30.12,1,0,5,0.00
2013-7-17,97,81,68,75,70,64,88,71,47,30.14,29.92,0,0,4,0.00
2013-7-24,58,56,53,49,48,47,84,75,69,30.00,29.92,1,0,4,0.00
2013-7-25,73,60,46,55,50,43,92,72,50,30.09,30.01,1,0,3,0.00
2013-7-26,58,57,57,53,53,52,85,84,84,30.06,30.05,1,0,3,0.00